User: anonymous   Login
Location: Kaarina
(60.4167°N, 22.4167°E)
Time: 13:32:22
(UTC+03:00)
Language:

Cosmos 2360 Rocket - Orbit

View from above orbital plane
View from above orbital plane
View from above satellite
View from above satellite

Ground track
Ground track

The orbit data is extracted from the following two-line orbital elements,

1 25407U 98045B   19288.75080017  .00000244  00000-0  14835-3 0  9994
2 25407  71.0125  53.9615 0008479 335.4792  24.5927 14.15791456 96575
Epoch (UTC): 15 October 2019 18:01:09
Eccentricity: 0.0008479
inclination: 71.0125°
perigee height: 833 km
apogee height: 846 km
right ascension of ascending node: 53.9615°
argument of perigee: 335.4792°
revolutions per day: 14.15791456
mean anomaly at epoch: 24.5927°
orbit number at epoch: 9657

The dashed part of the orbit path shows where the satellite is in the earth's shadow,  

DLR